Change the Weather History Date:

Monday, September 9, 2013

  Actual Average (KCEW) Record (KCEW)
Temperature  
Mean Temperature 81 °F -  
Max Temperature 93 °F 90 °F 95 °F (1948)
Min Temperature 69 °F 69 °F 54 °F (2011)
Cooling Degree Days 16    
Growing Degree Days 31 (Base 50)    
Moisture  
Dew Point 70 °F    
Average Humidity 72    
Maximum Humidity 94    
Minimum Humidity 42    
Precipitation  
Precipitation 0.00 in - - ()
Sea Level Pressure  
Sea Level Pressure 30.03 in    
Wind  
Wind Speed 1 mph (West)    
Max Wind Speed 6 mph    
Max Gust Speed -    
Visibility 8 miles    
Events Rain    
Averages and records for this station are not official NWS values.
T = Trace of Precipitation, MM = Missing Value Source: NWS Daily Summary

Daily Weather History Graph

Daily Weather History Graph

Search for Another Location

Airport or City:

Trip Planner

Search our weather history database for the weather conditions in past years. The results will help you decide how hot, cold, wet, or windy it might be!

Date:

Astronomy

Sep. 09, 2013 Rise Set
Actual Time 6:26 AM CDT 6:58 PM CDT
Civil Twilight 6:01 AM CDT 7:22 PM CDT
Nautical Twilight 5:33 AM CDT 7:51 PM CDT
Astronomical Twilight 5:04 AM CDT 8:20 PM CDT
Moon 10:26 AM CDT (9/9) 9:35 PM CDT (9/9)
Length of Visible Light 13h 20m
Length of Day
12h 32m
Waxing Crescent, 19% of the Moon is Illuminated
Sep 9
Waxing Crescent
Sep 12
First Quarter
Sep 19
Full
Sep 26
Last Quarter
Oct 4
New

Hourly Weather History & Observations

Time (CDT) Temp. Heat Index Dew Point Humidity Pressure Visibility Wind Dir Wind Speed Gust Speed Precip Events Conditions
12:58 AM 72.0 °F - 69.1 °F 91% 29.99 in 7.0 mi Calm Calm - N/A   Clear
1:58 AM 71.1 °F - 68.0 °F 90% 29.99 in 7.0 mi Calm Calm - N/A   Clear
2:58 AM 72.0 °F - 69.1 °F 91% 29.99 in 7.0 mi Calm Calm - N/A   Clear
3:58 AM 71.1 °F - 68.0 °F 90% 30.00 in 8.0 mi Calm Calm - N/A   Clear
4:58 AM 71.1 °F - 68.0 °F 90% 30.01 in 6.0 mi Calm Calm - N/A   Clear
5:58 AM 69.1 °F - 66.9 °F 93% 30.02 in 5.0 mi Calm Calm - N/A   Clear
6:58 AM 71.1 °F - 68.0 °F 90% 30.03 in 6.0 mi Calm Calm - N/A   Clear
7:58 AM 77.0 °F - 72.0 °F 84% 30.05 in 7.0 mi Calm Calm - N/A   Clear
8:58 AM 82.0 °F 86.7 °F 72.0 °F 71% 30.06 in 10.0 mi Calm Calm - N/A   Clear
9:58 AM 86.0 °F 90.1 °F 69.1 °F 57% 30.07 in 10.0 mi Calm Calm - N/A   Clear
10:58 AM 89.1 °F 94.1 °F 70.0 °F 53% 30.06 in 10.0 mi Calm Calm - N/A   Clear
11:58 AM 90.0 °F 94.5 °F 69.1 °F 50% 30.06 in 10.0 mi Calm Calm - N/A   Partly Cloudy
12:58 PM 91.9 °F 96.9 °F 69.1 °F 47% 30.05 in 10.0 mi NNE 4.6 mph - N/A   Mostly Cloudy
1:58 PM 89.1 °F 93.7 °F 69.1 °F 52% 30.04 in 10.0 mi Calm Calm - N/A   Partly Cloudy
2:58 PM 93.0 °F 97.4 °F 68.0 °F 44% 30.02 in 10.0 mi NNE 5.8 mph - N/A   Scattered Clouds
3:58 PM 93.0 °F 96.4 °F 66.9 °F 42% 30.01 in 10.0 mi NNE 3.5 mph - N/A   Partly Cloudy
4:58 PM 91.9 °F 95.4 °F 66.9 °F 44% 30.00 in 10.0 mi Calm Calm - N/A   Scattered Clouds
5:58 PM 88.0 °F 95.6 °F 73.0 °F 61% 30.00 in 10.0 mi Calm Calm - N/A   Clear
6:58 PM 82.9 °F 89.4 °F 73.9 °F 74% 30.01 in 10.0 mi Calm Calm - N/A   Clear
7:58 PM 82.0 °F 87.9 °F 73.9 °F 76% 30.03 in 10.0 mi SSW 3.5 mph - N/A   Mostly Cloudy
8:58 PM 81.0 °F 85.2 °F 72.0 °F 74% 30.05 in 10.0 mi SW 3.5 mph - N/A   Mostly Cloudy
9:58 PM 77.0 °F - 73.0 °F 88% 30.09 in 7.0 mi SSE 5.8 mph - 0.00 in Rain Light Rain
10:58 PM 75.9 °F - 73.9 °F 94% 30.08 in 7.0 mi West 3.5 mph - 0.00 in Rain Light Rain
11:58 PM 75.9 °F - 72.0 °F 87% 30.07 in 8.0 mi Calm Calm - 0.00 in   Scattered Clouds